contact:dominique.lefevre@mio.osupytheas.fr, maurice.libes@osupytheas.fr, didier.mallarino@osupytheas.fr
Project:EMSO http://www.emso-fr.org/EMSO-France
Depth: 2436.0 m
Title:EMSO Ligure Ouest : Data MII capteur MICROCAT
DateTime_Computer,Latitude,Longitude,Temperature,Conductivity,Pressure,DateTime_Instrument
DateTime_Computer,Latitude,Longitude,degC,S m-1,dbar,DateTime_Instrument
2021-03-02T00:01:19Z,42.805,6.029,13.2983,4.59994,2470.017,2021-3-02T02:02:24Z
2021-03-02T00:04:22Z,42.805,6.029,13.2989,4.59995,2469.97,2021-3-02T02:05:27Z
2021-03-02T00:07:25Z,42.805,6.029,13.2988,4.59993,2469.979,2021-3-02T02:08:30Z
2021-03-02T00:10:28Z,42.805,6.029,13.2990,4.59996,2470.04,2021-3-02T02:11:33Z
2021-03-02T00:13:31Z,42.805,6.029,13.2990,4.59996,2470.017,2021-3-02T02:14:37Z
2021-03-02T00:16:35Z,42.805,6.029,13.2986,4.59994,2470.007,2021-3-02T02:17:40Z
2021-03-02T00:19:38Z,42.805,6.029,13.2989,4.59995,2470.03,2021-3-02T02:20:43Z
2021-03-02T00:22:41Z,42.805,6.029,13.2988,4.59996,2470.007,2021-3-02T02:23:46Z
2021-03-02T00:25:44Z,42.805,6.029,13.2983,4.59994,2470.017,2021-3-02T02:26:49Z
2021-03-02T00:28:47Z,42.805,6.029,13.2990,4.59992,2470.03,2021-3-02T02:29:52Z
2021-03-02T00:31:50Z,42.805,6.029,13.2985,4.59992,2470.017,2021-3-02T02:32:55Z
2021-03-02T00:34:53Z,42.805,6.029,13.2990,4.59993,2469.96,2021-3-02T02:35:58Z
2021-03-02T00:37:56Z,42.805,6.029,13.2987,4.59995,2470.053,2021-3-02T02:39:01Z
2021-03-02T00:40:59Z,42.805,6.029,13.2988,4.59993,2470.017,2021-3-02T02:42:05Z
2021-03-02T00:44:03Z,42.805,6.029,13.2988,4.59992,2470.017,2021-3-02T02:45:08Z
2021-03-02T00:47:06Z,42.805,6.029,13.2986,4.59992,2469.984,2021-3-02T02:48:11Z
2021-03-02T00:50:09Z,42.805,6.029,13.2991,4.59997,2470.017,2021-3-02T02:51:14Z
2021-03-02T00:53:12Z,42.805,6.029,13.2986,4.59995,2469.97,2021-3-02T02:54:17Z
2021-03-02T00:56:15Z,42.805,6.029,13.2990,4.59996,2469.947,2021-3-02T02:57:20Z
2021-03-02T00:59:18Z,42.805,6.029,13.2987,4.59994,2469.947,2021-3-02T03:00:23Z
2021-03-02T01:02:21Z,42.805,6.029,13.2987,4.59994,2470.007,2021-3-02T03:03:26Z
2021-03-02T01:05:24Z,42.805,6.029,13.2986,4.59994,2469.984,2021-3-02T03:06:30Z
2021-03-02T01:08:28Z,42.805,6.029,13.2988,4.60000,2470.007,2021-3-02T03:09:33Z
2021-03-02T01:11:31Z,42.805,6.029,13.2987,4.59994,2469.947,2021-3-02T03:12:36Z
2021-03-02T01:14:34Z,42.805,6.029,13.2982,4.59991,2469.947,2021-3-02T03:15:39Z
2021-03-02T01:17:37Z,42.805,6.029,13.2991,4.59997,2469.947,2021-3-02T03:18:42Z
2021-03-02T01:20:40Z,42.805,6.029,13.2986,4.59991,2469.97,2021-3-02T03:21:45Z
2021-03-02T01:23:43Z,42.805,6.029,13.2990,4.59994,2469.97,2021-3-02T03:24:48Z
2021-03-02T01:26:46Z,42.805,6.029,13.2983,4.59992,2469.984,2021-3-02T03:27:51Z
2021-03-02T01:29:49Z,42.805,6.029,13.2988,4.59992,2469.937,2021-3-02T03:30:54Z
2021-03-02T01:32:53Z,42.805,6.029,13.2984,4.59996,2469.947,2021-3-02T03:33:58Z
2021-03-02T01:35:56Z,42.805,6.029,13.2987,4.59994,2469.886,2021-3-02T03:37:01Z
2021-03-02T01:38:59Z,42.805,6.029,13.2983,4.59992,2469.923,2021-3-02T03:40:04Z
2021-03-02T01:42:02Z,42.805,6.029,13.2986,4.59992,2469.97,2021-3-02T03:43:07Z
2021-03-02T01:45:05Z,42.805,6.029,13.2986,4.59991,2469.96,2021-3-02T03:46:10Z
2021-03-02T01:48:08Z,42.805,6.029,13.2988,4.59992,2469.947,2021-3-02T03:49:13Z
2021-03-02T01:51:11Z,42.805,6.029,13.2988,4.59991,2469.947,2021-3-02T03:52:16Z
2021-03-02T01:54:14Z,42.805,6.029,13.2988,4.59991,2469.937,2021-3-02T03:55:19Z
2021-03-02T01:57:17Z,42.805,6.029,13.2986,4.59996,2469.923,2021-3-02T03:58:23Z
2021-03-02T02:00:21Z,42.805,6.029,13.2988,4.59992,2469.993,2021-3-02T04:01:26Z
2021-03-02T02:03:24Z,42.805,6.029,13.2986,4.59992,2469.914,2021-3-02T04:04:29Z
2021-03-02T02:06:27Z,42.805,6.029,13.2984,4.59995,2469.947,2021-3-02T04:07:32Z
2021-03-02T02:09:30Z,42.805,6.029,13.2990,4.59994,2469.937,2021-3-02T04:10:35Z
2021-03-02T02:12:33Z,42.805,6.029,13.2990,4.59994,2469.9,2021-3-02T04:13:38Z
2021-03-02T02:15:36Z,42.805,6.029,13.2986,4.59996,2469.937,2021-3-02T04:16:41Z
2021-03-02T02:18:39Z,42.805,6.029,13.2986,4.59994,2469.9,2021-3-02T04:19:44Z
2021-03-02T02:21:42Z,42.805,6.029,13.2990,4.59993,2469.937,2021-3-02T04:22:47Z
2021-03-02T02:24:46Z,42.805,6.029,13.2987,4.59996,2469.9,2021-3-02T04:25:51Z
2021-03-02T02:27:49Z,42.805,6.029,13.2986,4.59994,2469.923,2021-3-02T04:28:54Z
2021-03-02T02:30:52Z,42.805,6.029,13.2982,4.59990,2469.876,2021-3-02T04:31:57Z
2021-03-02T02:33:55Z,42.805,6.029,13.2988,4.59995,2469.9,2021-3-02T04:35:00Z
2021-03-02T02:36:58Z,42.805,6.029,13.2989,4.59990,2469.89,2021-3-02T04:38:03Z
2021-03-02T02:40:01Z,42.805,6.029,13.2986,4.59993,2469.923,2021-3-02T04:41:06Z
2021-03-02T02:43:04Z,42.805,6.029,13.2988,4.59996,2469.914,2021-3-02T04:44:09Z
2021-03-02T02:46:07Z,42.805,6.029,13.2992,4.60003,2469.923,2021-3-02T04:47:12Z
2021-03-02T02:49:10Z,42.805,6.029,13.2982,4.59990,2469.867,2021-3-02T04:50:16Z
2021-03-02T02:52:14Z,42.805,6.029,13.2988,4.59998,2469.876,2021-3-02T04:53:19Z
2021-03-02T02:55:17Z,42.805,6.029,13.2997,4.59999,2469.937,2021-3-02T04:56:22Z
2021-03-02T02:58:20Z,42.805,6.029,13.2983,4.59991,2469.886,2021-3-02T04:59:25Z
2021-03-02T03:01:23Z,42.805,6.029,13.2986,4.59992,2469.876,2021-3-02T05:02:28Z
2021-03-02T03:04:26Z,42.805,6.029,13.2987,4.59996,2469.914,2021-3-02T05:05:31Z
2021-03-02T03:07:29Z,42.805,6.029,13.2985,4.59991,2469.89,2021-3-02T05:08:34Z
2021-03-02T03:10:32Z,42.805,6.029,13.2981,4.59989,2469.9,2021-3-02T05:11:37Z
2021-03-02T03:13:35Z,42.805,6.029,13.2982,4.59993,2469.89,2021-3-02T05:14:40Z
2021-03-02T03:16:38Z,42.805,6.029,13.2982,4.59991,2469.876,2021-3-02T05:17:44Z
2021-03-02T03:19:42Z,42.805,6.029,13.2985,4.59991,2469.89,2021-3-02T05:20:47Z
2021-03-02T03:22:45Z,42.805,6.029,13.2991,4.59996,2469.9,2021-3-02T05:23:50Z
2021-03-02T03:25:48Z,42.805,6.029,13.2984,4.59993,2469.89,2021-3-02T05:26:53Z
2021-03-02T03:28:51Z,42.805,6.029,13.2988,4.60004,2469.853,2021-3-02T05:29:56Z
2021-03-02T03:31:54Z,42.805,6.029,13.2983,4.59994,2469.914,2021-3-02T05:32:59Z
2021-03-02T03:34:57Z,42.805,6.029,13.2986,4.59992,2469.9,2021-3-02T05:36:02Z
2021-03-02T03:38:00Z,42.805,6.029,13.2993,4.59991,2469.9,2021-3-02T05:39:05Z
2021-03-02T03:41:03Z,42.805,6.029,13.2986,4.60001,2469.876,2021-3-02T05:42:09Z
2021-03-02T03:44:07Z,42.805,6.029,13.2980,4.59993,2469.853,2021-3-02T05:45:12Z
2021-03-02T03:47:10Z,42.805,6.029,13.2985,4.59994,2469.853,2021-3-02T05:48:15Z
2021-03-02T03:50:13Z,42.805,6.029,13.2985,4.60002,2469.923,2021-3-02T05:51:18Z
2021-03-02T03:53:16Z,42.805,6.029,13.2986,4.59991,2469.923,2021-3-02T05:54:21Z
2021-03-02T03:56:19Z,42.805,6.029,13.2984,4.59989,2469.9,2021-3-02T05:57:24Z
2021-03-02T03:59:22Z,42.805,6.029,13.2989,4.60000,2469.863,2021-3-02T06:00:27Z
2021-03-02T04:02:25Z,42.805,6.029,13.2983,4.59990,2469.9,2021-3-02T06:03:30Z
2021-03-02T04:05:28Z,42.805,6.029,13.2983,4.59988,2469.876,2021-3-02T06:06:33Z
2021-03-02T04:08:31Z,42.805,6.029,13.2985,4.59991,2469.876,2021-3-02T06:09:37Z
2021-03-02T04:11:35Z,42.805,6.029,13.2987,4.59995,2469.876,2021-3-02T06:12:40Z
2021-03-02T04:14:38Z,42.805,6.029,13.2988,4.60005,2469.9,2021-3-02T06:15:43Z
2021-03-02T04:17:41Z,42.805,6.029,13.2998,4.60002,2469.876,2021-3-02T06:18:46Z
2021-03-02T04:20:44Z,42.805,6.029,13.2983,4.59992,2469.89,2021-3-02T06:21:49Z
2021-03-02T04:23:47Z,42.805,6.029,13.2984,4.59994,2469.876,2021-3-02T06:24:52Z
2021-03-02T04:26:50Z,42.805,6.029,13.2982,4.59993,2469.937,2021-3-02T06:27:55Z
2021-03-02T04:29:53Z,42.805,6.029,13.2981,4.59988,2469.876,2021-3-02T06:30:58Z
2021-03-02T04:32:56Z,42.805,6.029,13.2981,4.59991,2469.914,2021-3-02T06:34:02Z
2021-03-02T04:36:00Z,42.805,6.029,13.2988,4.59990,2469.914,2021-3-02T06:37:05Z
2021-03-02T04:39:03Z,42.805,6.029,13.2985,4.60005,2469.914,2021-3-02T06:40:08Z
2021-03-02T04:42:06Z,42.805,6.029,13.2978,4.59988,2469.923,2021-3-02T06:43:11Z
2021-03-02T04:45:09Z,42.805,6.029,13.2982,4.59991,2469.923,2021-3-02T06:46:14Z
2021-03-02T04:48:12Z,42.805,6.029,13.2977,4.59990,2469.923,2021-3-02T06:49:17Z
2021-03-02T04:51:15Z,42.805,6.029,13.2981,4.59996,2469.923,2021-3-02T06:52:20Z
2021-03-02T04:54:18Z,42.805,6.029,13.2979,4.59991,2469.937,2021-3-02T06:55:23Z
2021-03-02T04:57:21Z,42.805,6.029,13.2980,4.59992,2469.9,2021-3-02T06:58:26Z
2021-03-02T05:00:25Z,42.805,6.029,13.2983,4.59990,2469.923,2021-3-02T07:01:30Z
2021-03-02T05:03:28Z,42.805,6.029,13.2981,4.59991,2469.923,2021-3-02T07:04:33Z
2021-03-02T05:06:31Z,42.805,6.029,13.2986,4.59996,2469.923,2021-3-02T07:07:36Z
2021-03-02T05:09:34Z,42.805,6.029,13.2982,4.59988,2469.9,2021-3-02T07:10:39Z
2021-03-02T05:12:37Z,42.805,6.029,13.2985,4.59993,2469.947,2021-3-02T07:13:42Z
2021-03-02T05:15:40Z,42.805,6.029,13.2986,4.59990,2469.9,2021-3-02T07:16:45Z
2021-03-02T05:18:43Z,42.805,6.029,13.2984,4.59990,2469.937,2021-3-02T07:19:48Z
2021-03-02T05:21:46Z,42.805,6.029,13.2982,4.60000,2469.923,2021-3-02T07:22:51Z
2021-03-02T05:24:49Z,42.805,6.029,13.2983,4.59991,2469.9,2021-3-02T07:25:55Z
2021-03-02T05:27:53Z,42.805,6.029,13.2986,4.59988,2469.96,2021-3-02T07:28:58Z
2021-03-02T05:30:56Z,42.805,6.029,13.2978,4.59989,2469.97,2021-3-02T07:32:01Z
2021-03-02T05:33:59Z,42.805,6.029,13.2985,4.59996,2469.947,2021-3-02T07:35:04Z
2021-03-02T05:37:02Z,42.805,6.029,13.2985,4.59987,2469.96,2021-3-02T07:38:07Z
2021-03-02T05:40:05Z,42.805,6.029,13.2983,4.59993,2469.97,2021-3-02T07:41:10Z
2021-03-02T05:43:08Z,42.805,6.029,13.2982,4.59996,2469.947,2021-3-02T07:44:13Z
2021-03-02T05:46:11Z,42.805,6.029,13.2983,4.59988,2469.97,2021-3-02T07:47:16Z
2021-03-02T05:49:14Z,42.805,6.029,13.2980,4.59991,2469.947,2021-3-02T07:50:19Z
2021-03-02T05:52:18Z,42.805,6.029,13.2982,4.60007,2469.993,2021-3-02T07:53:23Z
2021-03-02T05:55:21Z,42.805,6.029,13.2980,4.59991,2470.007,2021-3-02T07:56:26Z
2021-03-02T05:58:24Z,42.805,6.029,13.2982,4.59991,2469.97,2021-3-02T07:59:29Z
2021-03-02T06:01:27Z,42.805,6.029,13.2981,4.59990,2469.97,2021-3-02T08:02:32Z
2021-03-02T06:04:30Z,42.805,6.029,13.2983,4.59991,2469.97,2021-3-02T08:05:35Z
2021-03-02T06:07:33Z,42.805,6.029,13.2982,4.59988,2469.993,2021-3-02T08:08:38Z
2021-03-02T06:10:36Z,42.805,6.029,13.2981,4.59990,2469.97,2021-3-02T08:11:41Z
2021-03-02T06:13:39Z,42.805,6.029,13.2983,4.59987,2469.993,2021-3-02T08:14:44Z
2021-03-02T06:16:42Z,42.805,6.029,13.2982,4.59987,2469.97,2021-3-02T08:17:48Z
2021-03-02T06:19:46Z,42.805,6.029,13.2979,4.59994,2470.007,2021-3-02T08:20:51Z
2021-03-02T06:22:49Z,42.805,6.029,13.2982,4.59990,2469.993,2021-3-02T08:23:54Z
2021-03-02T06:25:52Z,42.805,6.029,13.2988,4.59993,2470.017,2021-3-02T08:26:57Z
2021-03-02T06:28:55Z,42.805,6.029,13.2983,4.59993,2470.017,2021-3-02T08:30:00Z
2021-03-02T06:31:58Z,42.805,6.029,13.2982,4.59991,2470.03,2021-3-02T08:33:03Z
2021-03-02T06:35:01Z,42.805,6.029,13.2986,4.59993,2470.053,2021-3-02T08:36:06Z
2021-03-02T06:38:04Z,42.805,6.029,13.2989,4.59995,2470.063,2021-3-02T08:39:09Z
2021-03-02T06:41:07Z,42.805,6.029,13.2981,4.59991,2470.04,2021-3-02T08:42:12Z
2021-03-02T06:44:11Z,42.805,6.029,13.2980,4.59991,2470.053,2021-3-02T08:45:16Z
2021-03-02T06:47:14Z,42.805,6.029,13.2979,4.59990,2470.04,2021-3-02T08:48:19Z
2021-03-02T06:50:17Z,42.805,6.029,13.2982,4.59992,2470.053,2021-3-02T08:51:22Z
2021-03-02T06:53:20Z,42.805,6.029,13.2982,4.59992,2470.063,2021-3-02T08:54:25Z
2021-03-02T06:56:23Z,42.805,6.029,13.2983,4.59993,2470.077,2021-3-02T08:57:28Z
2021-03-02T06:59:26Z,42.805,6.029,13.2980,4.59993,2470.077,2021-3-02T09:00:31Z
2021-03-02T07:02:29Z,42.805,6.029,13.2981,4.59992,2470.063,2021-3-02T09:03:34Z
2021-03-02T07:05:32Z,42.805,6.029,13.2983,4.59992,2470.077,2021-3-02T09:06:37Z
2021-03-02T07:08:36Z,42.805,6.029,13.2986,4.60000,2470.1,2021-3-02T09:09:41Z
2021-03-02T07:11:39Z,42.805,6.029,13.2982,4.59994,2470.073,2021-3-02T09:12:44Z
2021-03-02T07:14:42Z,42.805,6.029,13.2986,4.60003,2470.11,2021-3-02T09:15:47Z
2021-03-02T07:17:45Z,42.805,6.029,13.2985,4.60004,2470.11,2021-3-02T09:18:50Z
2021-03-02T07:20:48Z,42.805,6.029,13.2981,4.59991,2470.063,2021-3-02T09:21:53Z
2021-03-02T07:23:51Z,42.805,6.029,13.2986,4.60004,2470.063,2021-3-02T09:24:56Z
2021-03-02T07:26:54Z,42.805,6.029,13.2986,4.60003,2470.087,2021-3-02T09:27:59Z
2021-03-02T07:29:57Z,42.805,6.029,13.2985,4.59995,2470.124,2021-3-02T09:31:02Z
2021-03-02T07:33:00Z,42.805,6.029,13.2982,4.59997,2470.147,2021-3-02T09:34:06Z
2021-03-02T07:36:04Z,42.805,6.029,13.2982,4.60001,2470.087,2021-3-02T09:37:09Z
2021-03-02T07:39:07Z,42.805,6.029,13.2982,4.59996,2470.11,2021-3-02T09:40:12Z
2021-03-02T07:42:10Z,42.805,6.029,13.2981,4.59994,2470.133,2021-3-02T09:43:15Z
2021-03-02T07:45:13Z,42.805,6.029,13.2987,4.59995,2470.087,2021-3-02T09:46:18Z
2021-03-02T07:48:16Z,42.805,6.029,13.2982,4.59994,2470.11,2021-3-02T09:49:21Z
2021-03-02T07:51:19Z,42.805,6.029,13.2985,4.59996,2470.147,2021-3-02T09:52:24Z
2021-03-02T07:54:22Z,42.805,6.029,13.2990,4.59996,2470.133,2021-3-02T09:55:27Z
2021-03-02T07:57:25Z,42.805,6.029,13.2989,4.59993,2470.133,2021-3-02T09:58:31Z
2021-03-02T08:00:29Z,42.805,6.029,13.2982,4.59995,2470.147,2021-3-02T10:01:34Z
2021-03-02T08:03:32Z,42.805,6.029,13.2982,4.59996,2470.133,2021-3-02T10:04:37Z
2021-03-02T08:06:35Z,42.805,6.029,13.2985,4.59992,2470.171,2021-3-02T10:07:40Z
2021-03-02T08:09:38Z,42.805,6.029,13.2993,4.60001,2470.133,2021-3-02T10:10:43Z
2021-03-02T08:12:41Z,42.805,6.029,13.2986,4.59993,2470.156,2021-3-02T10:13:46Z
2021-03-02T08:15:44Z,42.805,6.029,13.2981,4.59991,2470.147,2021-3-02T10:16:49Z
2021-03-02T08:18:47Z,42.805,6.029,13.2982,4.59994,2470.147,2021-3-02T10:19:52Z
2021-03-02T08:21:50Z,42.805,6.029,13.2986,4.59993,2470.171,2021-3-02T10:22:55Z
2021-03-02T08:24:54Z,42.805,6.029,13.2984,4.59995,2470.133,2021-3-02T10:25:59Z
2021-03-02T08:27:57Z,42.805,6.029,13.2987,4.60004,2470.133,2021-3-02T10:29:02Z
2021-03-02T08:31:00Z,42.805,6.029,13.2984,4.59999,2470.147,2021-3-02T10:32:05Z
2021-03-02T08:34:03Z,42.805,6.029,13.2986,4.59995,2470.133,2021-3-02T10:35:08Z
2021-03-02T08:37:06Z,42.805,6.029,13.2982,4.59996,2470.143,2021-3-02T10:38:11Z
2021-03-02T08:40:09Z,42.805,6.029,13.2988,4.60000,2470.18,2021-3-02T10:41:14Z
2021-03-02T08:43:12Z,42.805,6.029,13.2986,4.59994,2470.194,2021-3-02T10:44:17Z
2021-03-02T08:46:15Z,42.805,6.029,13.2982,4.59991,2470.171,2021-3-02T10:47:20Z
2021-03-02T08:49:19Z,42.805,6.029,13.2982,4.59999,2470.133,2021-3-02T10:50:24Z
2021-03-02T08:52:22Z,42.805,6.029,13.2983,4.59992,2470.156,2021-3-02T10:53:27Z
2021-03-02T08:55:25Z,42.805,6.029,13.2983,4.59992,2470.203,2021-3-02T10:56:30Z
2021-03-02T08:58:28Z,42.805,6.029,13.2981,4.59996,2470.171,2021-3-02T10:59:33Z
2021-03-02T09:01:31Z,42.805,6.029,13.2985,4.59996,2470.133,2021-3-02T11:02:36Z
2021-03-02T09:04:34Z,42.805,6.029,13.2983,4.59996,2470.194,2021-3-02T11:05:39Z
2021-03-02T09:07:37Z,42.805,6.029,13.2982,4.59991,2470.156,2021-3-02T11:08:42Z
2021-03-02T09:10:40Z,42.805,6.029,13.2982,4.59994,2470.156,2021-3-02T11:11:45Z
2021-03-02T09:13:44Z,42.805,6.029,13.2985,4.59994,2470.171,2021-3-02T11:14:49Z
2021-03-02T09:16:47Z,42.805,6.029,13.2980,4.59994,2470.171,2021-3-02T11:17:52Z
2021-03-02T09:19:50Z,42.805,6.029,13.2982,4.59991,2470.217,2021-3-02T11:20:55Z
2021-03-02T09:22:53Z,42.805,6.029,13.2984,4.59999,2470.156,2021-3-02T11:23:58Z
2021-03-02T09:25:56Z,42.805,6.029,13.2984,4.59991,2470.194,2021-3-02T11:27:01Z
2021-03-02T09:28:59Z,42.805,6.029,13.2983,4.59999,2470.156,2021-3-02T11:30:04Z
2021-03-02T09:32:02Z,42.805,6.029,13.2982,4.59996,2470.156,2021-3-02T11:33:07Z
2021-03-02T09:35:05Z,42.805,6.029,13.2987,4.60000,2470.18,2021-3-02T11:36:10Z
2021-03-02T09:38:09Z,42.805,6.029,13.2992,4.60002,2470.171,2021-3-02T11:39:14Z
2021-03-02T09:41:12Z,42.805,6.029,13.2983,4.59992,2470.194,2021-3-02T11:42:17Z
2021-03-02T09:44:15Z,42.805,6.029,13.2989,4.59994,2470.156,2021-3-02T11:45:20Z
2021-03-02T09:47:18Z,42.805,6.029,13.2986,4.59993,2470.18,2021-3-02T11:48:23Z
2021-03-02T09:50:21Z,42.805,6.029,13.2982,4.59997,2470.18,2021-3-02T11:51:26Z
2021-03-02T09:53:24Z,42.805,6.029,13.2984,4.59996,2470.18,2021-3-02T11:54:29Z
2021-03-02T09:56:27Z,42.805,6.029,13.2986,4.59995,2470.203,2021-3-02T11:57:32Z
2021-03-02T09:59:30Z,42.805,6.029,13.2983,4.59997,2470.18,2021-3-02T12:00:35Z
2021-03-02T10:02:33Z,42.805,6.029,13.2987,4.59996,2470.147,2021-3-02T12:03:39Z
2021-03-02T10:05:37Z,42.805,6.029,13.2992,4.59997,2470.166,2021-3-02T12:06:42Z
2021-03-02T10:08:40Z,42.805,6.029,13.2988,4.59994,2470.194,2021-3-02T12:09:45Z
2021-03-02T10:11:43Z,42.805,6.029,13.2982,4.59994,2470.194,2021-3-02T12:12:48Z
2021-03-02T10:14:46Z,42.805,6.029,13.2986,4.59996,2470.18,2021-3-02T12:15:51Z
2021-03-02T10:17:49Z,42.805,6.029,13.2985,4.59993,2470.18,2021-3-02T12:18:54Z
2021-03-02T10:20:52Z,42.805,6.029,13.2984,4.59994,2470.156,2021-3-02T12:21:57Z
2021-03-02T10:23:55Z,42.805,6.029,13.2990,4.59993,2470.156,2021-3-02T12:25:00Z
2021-03-02T10:26:58Z,42.805,6.029,13.2983,4.60003,2470.119,2021-3-02T12:28:04Z
2021-03-02T10:30:02Z,42.805,6.029,13.2983,4.59996,2470.194,2021-3-02T12:31:07Z
2021-03-02T10:33:05Z,42.805,6.029,13.2986,4.59993,2470.166,2021-3-02T12:34:10Z
2021-03-02T10:36:08Z,42.805,6.029,13.2986,4.59991,2470.171,2021-3-02T12:37:13Z
2021-03-02T10:39:11Z,42.805,6.029,13.2983,4.59992,2470.171,2021-3-02T12:40:16Z
2021-03-02T10:42:14Z,42.805,6.029,13.2986,4.59994,2470.156,2021-3-02T12:43:19Z
2021-03-02T10:45:17Z,42.805,6.029,13.2984,4.59995,2470.156,2021-3-02T12:46:22Z
2021-03-02T10:48:20Z,42.805,6.029,13.2988,4.60000,2470.171,2021-3-02T12:49:25Z
2021-03-02T10:51:23Z,42.805,6.029,13.2988,4.59998,2470.133,2021-3-02T12:52:29Z
2021-03-02T10:54:27Z,42.805,6.029,13.2983,4.59995,2470.147,2021-3-02T12:55:32Z
2021-03-02T10:57:30Z,42.805,6.029,13.2990,4.59996,2470.133,2021-3-02T12:58:35Z
2021-03-02T11:00:33Z,42.805,6.029,13.2987,4.59996,2470.147,2021-3-02T13:01:38Z
2021-03-02T11:03:36Z,42.805,6.029,13.2987,4.59994,2470.133,2021-3-02T13:04:41Z
2021-03-02T11:06:39Z,42.805,6.029,13.2983,4.59992,2470.133,2021-3-02T13:07:44Z
2021-03-02T11:09:42Z,42.805,6.029,13.2986,4.59992,2470.133,2021-3-02T13:10:47Z
2021-03-02T11:12:45Z,42.805,6.029,13.2986,4.59994,2470.133,2021-3-02T13:13:50Z
2021-03-02T11:15:48Z,42.805,6.029,13.2985,4.59993,2470.124,2021-3-02T13:16:54Z
2021-03-02T11:18:52Z,42.805,6.029,13.2983,4.60000,2470.147,2021-3-02T13:19:57Z
2021-03-02T11:21:55Z,42.805,6.029,13.2990,4.60002,2470.133,2021-3-02T13:23:00Z
2021-03-02T11:24:58Z,42.805,6.029,13.2985,4.59994,2470.11,2021-3-02T13:26:03Z
2021-03-02T11:28:01Z,42.805,6.029,13.2984,4.59996,2470.124,2021-3-02T13:29:06Z
2021-03-02T11:31:04Z,42.805,6.029,13.2990,4.59994,2470.124,2021-3-02T13:32:09Z
2021-03-02T11:34:07Z,42.805,6.029,13.2990,4.59996,2470.133,2021-3-02T13:35:12Z
2021-03-02T11:37:10Z,42.805,6.029,13.2986,4.59999,2470.11,2021-3-02T13:38:15Z
2021-03-02T11:40:13Z,42.805,6.029,13.2989,4.59994,2470.156,2021-3-02T13:41:19Z
2021-03-02T11:43:17Z,42.805,6.029,13.2990,4.59998,2470.133,2021-3-02T13:44:22Z
2021-03-02T11:46:20Z,42.805,6.029,13.2991,4.59996,2470.11,2021-3-02T13:47:25Z
2021-03-02T11:49:23Z,42.805,6.029,13.2990,4.59992,2470.087,2021-3-02T13:50:28Z
2021-03-02T11:52:26Z,42.805,6.029,13.2989,4.59996,2470.147,2021-3-02T13:53:31Z
2021-03-02T11:55:29Z,42.805,6.029,13.2989,4.59994,2470.1,2021-3-02T13:56:34Z
2021-03-02T11:58:32Z,42.805,6.029,13.2990,4.59998,2470.147,2021-3-02T13:59:37Z
2021-03-02T12:01:35Z,42.805,6.029,13.2989,4.60002,2470.11,2021-3-02T14:02:40Z
2021-03-02T12:04:38Z,42.805,6.029,13.2993,4.60008,2470.124,2021-3-02T14:05:44Z
2021-03-02T12:07:42Z,42.805,6.029,13.2986,4.60000,2470.11,2021-3-02T14:08:47Z
2021-03-02T12:10:45Z,42.805,6.029,13.2993,4.59996,2470.124,2021-3-02T14:11:50Z
2021-03-02T12:13:48Z,42.805,6.029,13.2989,4.59995,2470.096,2021-3-02T14:14:53Z
2021-03-02T12:16:51Z,42.805,6.029,13.2991,4.60010,2470.1,2021-3-02T14:17:56Z
2021-03-02T12:19:54Z,42.805,6.029,13.2986,4.59999,2470.124,2021-3-02T14:20:59Z
2021-03-02T12:22:57Z,42.805,6.029,13.2990,4.59999,2470.1,2021-3-02T14:24:02Z
2021-03-02T12:26:00Z,42.805,6.029,13.2990,4.59996,2470.087,2021-3-02T14:27:05Z
2021-03-02T12:29:03Z,42.805,6.029,13.2990,4.59997,2470.087,2021-3-02T14:30:08Z
2021-03-02T12:32:07Z,42.805,6.029,13.2990,4.59997,2470.124,2021-3-02T14:33:12Z
2021-03-02T12:35:10Z,42.805,6.029,13.2989,4.59996,2470.124,2021-3-02T14:36:15Z
2021-03-02T12:38:13Z,42.805,6.029,13.2986,4.59996,2470.087,2021-3-02T14:39:18Z
2021-03-02T12:41:16Z,42.805,6.029,13.2991,4.59996,2470.1,2021-3-02T14:42:21Z
2021-03-02T12:44:19Z,42.805,6.029,13.2989,4.59995,2470.087,2021-3-02T14:45:24Z
2021-03-02T12:47:22Z,42.805,6.029,13.2990,4.59998,2470.063,2021-3-02T14:48:27Z
2021-03-02T12:50:25Z,42.805,6.029,13.2990,4.59996,2470.063,2021-3-02T14:51:30Z
2021-03-02T12:53:28Z,42.805,6.029,13.2994,4.59998,2470.063,2021-3-02T14:54:33Z
2021-03-02T12:56:32Z,42.805,6.029,13.2987,4.59998,2470.087,2021-3-02T14:57:37Z
2021-03-02T12:59:35Z,42.805,6.029,13.2990,4.59998,2470.063,2021-3-02T15:00:40Z
2021-03-02T13:02:38Z,42.805,6.029,13.2987,4.59994,2470.04,2021-3-02T15:03:43Z
2021-03-02T13:05:41Z,42.805,6.029,13.2986,4.59996,2470.087,2021-3-02T15:06:46Z
2021-03-02T13:08:44Z,42.805,6.029,13.2989,4.59996,2470.04,2021-3-02T15:09:49Z
2021-03-02T13:11:47Z,42.805,6.029,13.2990,4.60000,2470.087,2021-3-02T15:12:52Z
2021-03-02T13:14:50Z,42.805,6.029,13.2990,4.60004,2470.063,2021-3-02T15:15:55Z
2021-03-02T13:17:53Z,42.805,6.029,13.2994,4.60002,2470.063,2021-3-02T15:18:58Z
2021-03-02T13:20:57Z,42.805,6.029,13.2990,4.60002,2470.1,2021-3-02T15:22:02Z
2021-03-02T13:24:00Z,42.805,6.029,13.2986,4.60000,2470.017,2021-3-02T15:25:05Z
2021-03-02T13:27:03Z,42.805,6.029,13.2996,4.60005,2470.017,2021-3-02T15:28:08Z
2021-03-02T13:30:06Z,42.805,6.029,13.2988,4.59998,2469.993,2021-3-02T15:31:11Z
2021-03-02T13:33:09Z,42.805,6.029,13.2987,4.59999,2470.03,2021-3-02T15:34:14Z
2021-03-02T13:36:12Z,42.805,6.029,13.2990,4.59999,2470.017,2021-3-02T15:37:17Z
2021-03-02T13:39:15Z,42.805,6.029,13.2990,4.59996,2470.04,2021-3-02T15:40:20Z
2021-03-02T13:42:18Z,42.805,6.029,13.2990,4.59999,2470.04,2021-3-02T15:43:23Z
2021-03-02T13:45:21Z,42.805,6.029,13.2995,4.60003,2470.053,2021-3-02T15:46:27Z
2021-03-02T13:48:25Z,42.805,6.029,13.2994,4.60004,2470.063,2021-3-02T15:49:30Z
2021-03-02T13:51:28Z,42.805,6.029,13.2990,4.60007,2470.017,2021-3-02T15:52:33Z
2021-03-02T13:54:31Z,42.805,6.029,13.2991,4.60010,2470.053,2021-3-02T15:55:36Z
2021-03-02T13:57:34Z,42.805,6.029,13.2993,4.60004,2470.017,2021-3-02T15:58:39Z
2021-03-02T14:00:37Z,42.805,6.029,13.2986,4.59998,2469.993,2021-3-02T16:01:42Z
2021-03-02T14:03:40Z,42.805,6.029,13.2990,4.59999,2470.077,2021-3-02T16:04:45Z
2021-03-02T14:06:43Z,42.805,6.029,13.3000,4.60011,2470.017,2021-3-02T16:07:48Z
2021-03-02T14:09:46Z,42.805,6.029,13.2997,4.60009,2470.03,2021-3-02T16:10:52Z
2021-03-02T14:12:50Z,42.805,6.029,13.2987,4.60003,2470.04,2021-3-02T16:13:55Z
2021-03-02T14:15:53Z,42.805,6.029,13.2990,4.59999,2470.017,2021-3-02T16:16:58Z
2021-03-02T14:18:56Z,42.805,6.029,13.2991,4.60001,2470.017,2021-3-02T16:20:01Z
2021-03-02T14:21:59Z,42.805,6.029,13.2990,4.59996,2469.993,2021-3-02T16:23:04Z
2021-03-02T14:25:02Z,42.805,6.029,13.2991,4.59999,2469.993,2021-3-02T16:26:07Z
2021-03-02T14:28:05Z,42.805,6.029,13.2992,4.59998,2470.003,2021-3-02T16:29:10Z
2021-03-02T14:31:08Z,42.805,6.029,13.2989,4.60002,2469.993,2021-3-02T16:32:13Z
2021-03-02T14:34:11Z,42.805,6.029,13.2991,4.59999,2470.007,2021-3-02T16:35:17Z
2021-03-02T14:37:15Z,42.805,6.029,13.2992,4.59999,2470.007,2021-3-02T16:38:20Z
2021-03-02T14:40:18Z,42.805,6.029,13.2994,4.59999,2469.993,2021-3-02T16:41:23Z
2021-03-02T14:43:21Z,42.805,6.029,13.2992,4.60009,2469.993,2021-3-02T16:44:26Z
2021-03-02T14:46:24Z,42.805,6.029,13.2995,4.60012,2470.007,2021-3-02T16:47:29Z
2021-03-02T14:49:27Z,42.805,6.029,13.2985,4.60001,2470.03,2021-3-02T16:50:32Z
2021-03-02T14:52:30Z,42.805,6.029,13.2994,4.60001,2470.007,2021-3-02T16:53:35Z
2021-03-02T14:55:33Z,42.805,6.029,13.2991,4.59997,2470.017,2021-3-02T16:56:38Z
2021-03-02T14:58:36Z,42.805,6.029,13.2988,4.60000,2469.993,2021-3-02T16:59:42Z
2021-03-02T15:01:40Z,42.805,6.029,13.2986,4.59999,2470.017,2021-3-02T17:02:45Z
2021-03-02T15:04:43Z,42.805,6.029,13.2991,4.59998,2470.03,2021-3-02T17:05:48Z
2021-03-02T15:07:46Z,42.805,6.029,13.2993,4.60006,2470.007,2021-3-02T17:08:51Z
2021-03-02T15:10:49Z,42.805,6.029,13.2992,4.60001,2469.97,2021-3-02T17:11:54Z
2021-03-02T15:13:52Z,42.805,6.029,13.2999,4.60003,2470.007,2021-3-02T17:14:57Z